Tracking 32932 objects as of 14-Jan-2026
HD Live streaming from Space Station
objects crossing your sky now

THORAD DELTA 1 DEB

Track THORAD DELTA 1 DEB now!
10-day predictions


NORAD ID: 8175
Int'l Code: 1974-089AR
Perigee: 1,235.1 km
Apogee: 1,567.7 km
Inclination: 102.6 °
Period: 113.7 minutes
Semi major axis: 7772 km
RCS: 0.0392 m2 (small)
Launch date: November 15, 1974
Source: United States (US)
Launch site: AIR FORCE WESTERN TEST RANGE (AFWTR)

Note: This is SATELLITE DEBRIS
Your satellite tracking list
Your tracking list is empty




NASA's NSSDC Master Catalog

Two Line Element Set (TLE):
1 08175U 74089AR  26012.26112440  .00002782  00000-0  13582-1 0  9999
2 08175 102.6296 302.2752 0213988 323.9686 193.2083 12.66986671309727
Source of the keplerian elements: AFSPC